Time,TemperatureF,DewpointF,PressureIn,WindDirection,WindDirectionDegrees,WindSpeedMPH,WindSpeedGustMPH,Humidity,HourlyPrecipIn,Conditions,Clouds,dailyrainin,SoftwareType,DateUTC
2013-09-26 00:03:00,53.9,30.7,29.50,NE,42,5.0,8.0,41,0.00,,,0.00,Wunderground v.1.15,2013-09-26 06:03:00,
2013-09-26 00:08:00,53.7,31.7,29.50,NNE,33,8.0,8.0,43,0.00,,,0.00,Wunderground v.1.15,2013-09-26 06:08:00,
2013-09-26 00:14:00,52.2,30.9,29.50,NE,46,6.0,7.0,44,0.00,,,0.00,Wunderground v.1.15,2013-09-26 06:14:00,
2013-09-26 00:20:00,51.5,30.3,29.50,North,5,2.0,4.0,44,0.00,,,0.00,Wunderground v.1.15,2013-09-26 06:20:00,
2013-09-26 00:25:00,51.6,30.9,29.50,North,360,0.0,4.0,45,0.00,,,0.00,Wunderground v.1.15,2013-09-26 06:25:00,
2013-09-26 00:30:00,51.3,31.2,29.50,North,360,0.0,1.0,46,0.00,,,0.00,Wunderground v.1.15,2013-09-26 06:30:00,
2013-09-26 00:36:00,50.7,31.2,29.50,North,360,1.0,1.0,47,0.00,,,0.00,Wunderground v.1.15,2013-09-26 06:36:00,
2013-09-26 00:41:00,50.9,31.4,29.50,NNE,26,1.0,2.0,47,0.00,,,0.00,Wunderground v.1.15,2013-09-26 06:41:00,
2013-09-26 00:47:00,50.9,31.9,29.50,NNE,26,3.0,3.0,48,0.00,,,0.00,Wunderground v.1.15,2013-09-26 06:47:00,
2013-09-26 00:52:00,49.5,32.1,29.50,NE,39,5.0,8.0,51,0.00,,,0.00,Wunderground v.1.15,2013-09-26 06:52:00,
2013-09-26 00:58:00,49.2,31.8,29.50,NE,38,4.0,9.0,51,0.00,,,0.00,Wunderground v.1.15,2013-09-26 06:58:00,
2013-09-26 01:04:00,49.3,31.4,29.50,NE,39,3.0,5.0,50,0.00,,,0.00,Wunderground v.1.15,2013-09-26 07:04:00,
2013-09-26 01:10:00,48.7,32.3,29.50,NE,38,2.0,2.0,53,0.00,,,0.00,Wunderground v.1.15,2013-09-26 07:10:00,
2013-09-26 01:16:00,47.2,32.3,29.50,NE,38,6.0,6.0,56,0.00,,,0.00,Wunderground v.1.15,2013-09-26 07:16:00,
2013-09-26 01:21:00,46.6,32.2,29.50,NE,39,4.0,4.0,57,0.00,,,0.00,Wunderground v.1.15,2013-09-26 07:21:00,
2013-09-26 01:27:00,45.9,31.5,29.50,NE,46,6.0,7.0,57,0.00,,,0.00,Wunderground v.1.15,2013-09-26 07:27:00,
2013-09-26 01:33:00,46.3,31.0,29.51,NE,49,4.0,6.0,55,0.00,,,0.00,Wunderground v.1.15,2013-09-26 07:33:00,
2013-09-26 01:38:00,47.0,31.2,29.50,NE,49,7.0,7.0,54,0.00,,,0.00,Wunderground v.1.15,2013-09-26 07:38:00,
2013-09-26 01:44:00,47.7,30.9,29.51,NNE,33,6.0,6.0,52,0.00,,,0.00,Wunderground v.1.15,2013-09-26 07:44:00,
2013-09-26 01:50:00,47.6,31.3,29.51,NNE,32,7.0,7.0,53,0.00,,,0.00,Wunderground v.1.15,2013-09-26 07:50:00,
2013-09-26 01:56:00,47.4,31.1,29.51,NE,51,5.0,7.0,53,0.00,,,0.00,Wunderground v.1.15,2013-09-26 07:56:00,
2013-09-26 02:01:00,47.8,31.0,29.51,NE,51,5.0,6.0,52,0.00,,,0.00,Wunderground v.1.15,2013-09-26 08:01:00,
2013-09-26 02:06:00,48.1,31.3,29.51,NE,53,8.0,9.0,52,0.00,,,0.00,Wunderground v.1.15,2013-09-26 08:06:00,
2013-09-26 02:11:00,48.1,32.2,29.51,NNE,30,7.0,11.0,54,0.00,,,0.00,Wunderground v.1.15,2013-09-26 08:11:00,
2013-09-26 02:16:00,48.8,32.4,29.51,NNE,32,6.0,11.0,53,0.00,,,0.00,Wunderground v.1.15,2013-09-26 08:16:00,
2013-09-26 02:21:00,48.0,32.6,29.51,NE,52,6.0,8.0,55,0.00,,,0.00,Wunderground v.1.15,2013-09-26 08:21:00,
2013-09-26 02:26:00,47.6,31.8,29.51,NE,41,5.0,10.0,54,0.00,,,0.00,Wunderground v.1.15,2013-09-26 08:26:00,
2013-09-26 02:31:00,47.6,32.2,29.51,NE,42,3.0,7.0,55,0.00,,,0.00,Wunderground v.1.15,2013-09-26 08:31:00,
2013-09-26 02:36:00,47.2,31.8,29.51,NE,37,6.0,7.0,55,0.00,,,0.00,Wunderground v.1.15,2013-09-26 08:36:00,
2013-09-26 02:41:00,47.2,31.8,29.51,NE,44,4.0,8.0,55,0.00,,,0.00,Wunderground v.1.15,2013-09-26 08:41:00,
2013-09-26 02:46:00,47.0,31.7,29.51,NE,56,7.0,9.0,55,0.00,,,0.00,Wunderground v.1.15,2013-09-26 08:46:00,
2013-09-26 02:51:00,47.1,31.7,29.51,NE,41,7.0,8.0,55,0.00,,,0.00,Wunderground v.1.15,2013-09-26 08:51:00,
2013-09-26 02:56:00,47.1,31.7,29.51,NE,41,6.0,9.0,55,0.00,,,0.00,Wunderground v.1.15,2013-09-26 08:56:00,
2013-09-26 03:01:00,46.7,31.8,29.52,NE,38,4.0,6.0,56,0.00,,,0.00,Wunderground v.1.15,2013-09-26 09:01:00,
2013-09-26 03:06:00,46.3,31.9,29.51,NE,50,6.0,7.0,57,0.00,,,0.00,Wunderground v.1.15,2013-09-26 09:06:00,
2013-09-26 03:11:00,45.4,31.5,29.51,NE,49,3.0,6.0,58,0.00,,,0.00,Wunderground v.1.15,2013-09-26 09:11:00,
2013-09-26 03:16:00,45.0,31.5,29.51,NNE,32,7.0,7.0,59,0.00,,,0.00,Wunderground v.1.15,2013-09-26 09:16:00,
2013-09-26 03:21:00,45.3,31.4,29.52,NE,42,5.0,7.0,58,0.00,,,0.00,Wunderground v.1.15,2013-09-26 09:21:00,
2013-09-26 03:26:00,45.2,30.9,29.52,NE,51,6.0,7.0,57,0.00,,,0.00,Wunderground v.1.15,2013-09-26 09:26:00,
2013-09-26 03:31:00,45.3,31.0,29.51,NE,50,8.0,9.0,57,0.00,,,0.00,Wunderground v.1.15,2013-09-26 09:31:00,
2013-09-26 03:36:00,45.4,30.6,29.52,NE,36,7.0,9.0,56,0.00,,,0.00,Wunderground v.1.15,2013-09-26 09:36:00,
2013-09-26 03:41:00,46.1,30.8,29.52,NNE,33,4.0,8.0,55,0.00,,,0.00,Wunderground v.1.15,2013-09-26 09:41:00,
2013-09-26 03:46:00,45.6,31.2,29.52,NE,50,5.0,8.0,57,0.00,,,0.00,Wunderground v.1.15,2013-09-26 09:46:00,
2013-09-26 03:51:00,44.9,31.0,29.52,NE,41,6.0,8.0,58,0.00,,,0.00,Wunderground v.1.15,2013-09-26 09:51:00,
2013-09-26 16:06:00,71.5,29.5,29.45,SSW,200,15.0,15.0,21,0.00,,,0.00,Wunderground v.1.15,2013-09-26 22:06:00,
2013-09-26 16:11:00,71.4,28.2,29.45,South,169,11.0,19.0,20,0.00,,,0.00,Wunderground v.1.15,2013-09-26 22:11:00,
2013-09-26 16:16:00,71.3,28.1,29.45,South,182,20.0,20.0,20,0.00,,,0.00,Wunderground v.1.15,2013-09-26 22:16:00,
2013-09-26 16:21:00,71.1,28.0,29.45,SSE,165,25.0,25.0,20,0.00,,,0.00,Wunderground v.1.15,2013-09-26 22:21:00,
2013-09-26 16:26:00,70.8,26.5,29.45,SSE,160,15.0,18.0,19,0.00,,,0.00,Wunderground v.1.15,2013-09-26 22:26:00,
2013-09-26 16:31:00,71.1,26.7,29.45,South,179,21.0,26.0,19,0.00,,,0.00,Wunderground v.1.15,2013-09-26 22:31:00,
2013-09-26 16:36:00,70.6,26.3,29.45,SSE,167,25.0,30.0,19,0.00,,,0.00,Wunderground v.1.15,2013-09-26 22:36:00,
2013-09-26 16:41:00,70.2,27.2,29.45,SSW,210,18.0,30.0,20,0.00,,,0.00,Wunderground v.1.15,2013-09-26 22:41:00,
2013-09-26 16:46:00,70.1,28.3,29.46,SSW,202,21.0,23.0,21,0.00,,,0.00,Wunderground v.1.15,2013-09-26 22:46:00,
2013-09-26 16:51:00,70.0,28.2,29.46,South,171,14.0,26.0,21,0.00,,,0.00,Wunderground v.1.15,2013-09-26 22:51:00,
2013-09-26 16:56:00,70.0,27.0,29.46,SSE,167,20.0,22.0,20,0.00,,,0.00,Wunderground v.1.15,2013-09-26 22:56:00,
2013-09-26 17:01:00,70.0,27.0,29.45,South,181,24.0,27.0,20,0.00,,,0.00,Wunderground v.1.15,2013-09-26 23:01:00,
2013-09-26 17:06:00,69.8,26.9,29.46,SSW,196,18.0,27.0,20,0.00,,,0.00,Wunderground v.1.15,2013-09-26 23:06:00,
2013-09-26 17:11:00,69.6,26.7,29.46,SSW,213,26.0,27.0,20,0.00,,,0.00,Wunderground v.1.15,2013-09-26 23:11:00,
2013-09-26 17:16:00,69.3,27.7,29.46,South,178,21.0,28.0,21,0.00,,,0.00,Wunderground v.1.15,2013-09-26 23:16:00,
2013-09-26 17:22:00,69.2,26.4,29.46,SSW,213,24.0,25.0,20,0.00,,,0.00,Wunderground v.1.15,2013-09-26 23:22:00,
2013-09-26 17:27:00,69.1,27.5,29.45,South,186,21.0,25.0,21,0.00,,,0.00,Wunderground v.1.15,2013-09-26 23:27:00,
2013-09-26 17:32:00,68.9,28.5,29.45,SSW,210,20.0,26.0,22,0.00,,,0.00,Wunderground v.1.15,2013-09-26 23:32:00,
2013-09-26 17:37:00,68.6,27.1,29.46,SW,215,22.0,28.0,21,0.00,,,0.00,Wunderground v.1.15,2013-09-26 23:37:00,
2013-09-26 17:42:00,68.5,27.0,29.46,SSW,200,17.0,26.0,21,0.00,,,0.00,Wunderground v.1.15,2013-09-26 23:42:00,
2013-09-26 17:47:00,68.1,26.7,29.45,SSW,209,21.0,29.0,21,0.00,,,0.00,Wunderground v.1.15,2013-09-26 23:47:00,
2013-09-26 17:52:00,67.8,26.4,29.46,SSW,193,19.0,30.0,21,0.00,,,0.00,Wunderground v.1.15,2013-09-26 23:52:00,
2013-09-26 17:57:00,67.4,27.2,29.46,SSW,195,13.0,30.0,22,0.00,,,0.00,Wunderground v.1.15,2013-09-26 23:57:00,
2013-09-26 18:02:00,67.1,26.9,29.46,SSW,200,26.0,27.0,22,0.00,,,0.00,Wunderground v.1.15,2013-09-27 00:02:00,
2013-09-26 18:07:00,66.8,26.7,29.46,SSW,203,22.0,27.0,22,0.00,,,0.00,Wunderground v.1.15,2013-09-27 00:07:00,
2013-09-26 18:12:00,66.5,26.4,29.46,SSW,198,23.0,26.0,22,0.00,,,0.00,Wunderground v.1.15,2013-09-27 00:12:00,
2013-09-26 18:17:00,66.1,27.2,29.46,South,191,18.0,26.0,23,0.00,,,0.00,Wunderground v.1.15,2013-09-27 00:17:00,
2013-09-26 18:22:00,65.7,26.9,29.46,SSW,211,25.0,26.0,23,0.00,,,0.00,Wunderground v.1.15,2013-09-27 00:22:00,
2013-09-26 18:27:00,65.6,26.8,29.46,SSW,193,23.0,27.0,23,0.00,,,0.00,Wunderground v.1.15,2013-09-27 00:27:00,
2013-09-26 18:32:00,65.2,27.5,29.46,SW,217,10.0,22.0,24,0.00,,,0.00,Wunderground v.1.15,2013-09-27 00:32:00,
2013-09-26 18:37:00,64.6,27.0,29.47,SSW,202,16.0,22.0,24,0.00,,,0.00,Wunderground v.1.15,2013-09-27 00:37:00,
2013-09-26 18:42:00,64.3,26.7,29.47,SSW,202,14.0,26.0,24,0.00,,,0.00,Wunderground v.1.15,2013-09-27 00:42:00,
2013-09-26 18:47:00,63.2,26.8,29.47,SW,227,8.0,26.0,25,0.00,,,0.00,Wunderground v.1.15,2013-09-27 00:47:00,
2013-09-26 18:52:00,62.6,26.2,29.47,SW,221,10.0,12.0,25,0.00,,,0.00,Wunderground v.1.15,2013-09-27 00:52:00,
2013-09-26 18:57:00,62.6,26.2,29.47,SSW,208,13.0,21.0,25,0.00,,,0.00,Wunderground v.1.15,2013-09-27 00:57:00,
2013-09-26 19:02:00,62.4,25.1,29.46,SW,222,13.0,17.0,24,0.00,,,0.00,Wunderground v.1.15,2013-09-27 01:02:00,
2013-09-26 19:07:00,61.8,25.6,29.46,SSW,205,16.0,17.0,25,0.00,,,0.00,Wunderground v.1.15,2013-09-27 01:07:00,
2013-09-26 19:12:00,61.1,25.9,29.46,SSW,207,10.0,11.0,26,0.00,,,0.00,Wunderground v.1.15,2013-09-27 01:12:00,
2013-09-26 19:17:00,61.3,25.1,29.46,SSW,192,13.0,23.0,25,0.00,,,0.00,Wunderground v.1.15,2013-09-27 01:17:00,
2013-09-26 19:22:00,61.5,25.3,29.46,SSW,203,13.0,21.0,25,0.00,,,0.00,Wunderground v.1.15,2013-09-27 01:22:00,
2013-09-26 19:27:00,61.6,25.4,29.46,South,180,12.0,21.0,25,0.00,,,0.00,Wunderground v.1.15,2013-09-27 01:27:00,
2013-09-26 19:32:00,61.0,25.8,29.46,South,184,8.0,14.0,26,0.00,,,0.00,Wunderground v.1.15,2013-09-27 01:32:00,
2013-09-26 19:37:00,60.2,26.1,29.46,South,182,13.0,14.0,27,0.00,,,0.00,Wunderground v.1.15,2013-09-27 01:37:00,
2013-09-26 19:42:00,60.0,25.9,29.46,SSW,198,9.0,13.0,27,0.00,,,0.00,Wunderground v.1.15,2013-09-27 01:42:00,
2013-09-26 19:47:00,59.3,25.3,29.46,SSW,200,9.0,13.0,27,0.00,,,0.00,Wunderground v.1.15,2013-09-27 01:47:00,
2013-09-26 19:52:00,59.0,26.8,29.46,SSW,198,9.0,10.0,29,0.00,,,0.00,Wunderground v.1.15,2013-09-27 01:52:00,
2013-09-26 19:57:00,58.9,25.8,29.46,South,173,12.0,15.0,28,0.00,,,0.00,Wunderground v.1.15,2013-09-27 01:57:00,
2013-09-26 20:02:00,59.0,25.9,29.46,South,184,13.0,17.0,28,0.00,,,0.00,Wunderground v.1.15,2013-09-27 02:02:00,
2013-09-26 20:08:00,59.3,26.2,29.46,South,170,12.0,17.0,28,0.00,,,0.00,Wunderground v.1.15,2013-09-27 02:08:00,
2013-09-26 20:13:00,59.0,26.8,29.46,SSE,167,13.0,18.0,29,0.00,,,0.00,Wunderground v.1.15,2013-09-27 02:13:00,
2013-09-26 20:18:00,58.5,26.3,29.46,SSE,165,9.0,18.0,29,0.00,,,0.00,Wunderground v.1.15,2013-09-27 02:18:00,
2013-09-26 20:23:00,58.0,26.7,29.47,South,170,11.0,14.0,30,0.00,,,0.00,Wunderground v.1.15,2013-09-27 02:23:00,
2013-09-26 20:28:00,57.6,26.4,29.47,SSE,164,10.0,14.0,30,0.00,,,0.00,Wunderground v.1.15,2013-09-27 02:28:00,
2013-09-26 20:33:00,56.8,27.2,29.47,SSE,154,9.0,11.0,32,0.00,,,0.00,Wunderground v.1.15,2013-09-27 02:33:00,
2013-09-26 20:38:00,56.5,27.0,29.47,SSE,161,11.0,12.0,32,0.00,,,0.00,Wunderground v.1.15,2013-09-27 02:38:00,
2013-09-26 20:43:00,55.8,27.8,29.47,SSE,165,10.0,11.0,34,0.00,,,0.00,Wunderground v.1.15,2013-09-27 02:43:00,
2013-09-26 20:48:00,54.7,28.2,29.48,SSE,162,7.0,12.0,36,0.00,,,0.00,Wunderground v.1.15,2013-09-27 02:48:00,
2013-09-26 20:53:00,54.5,28.1,29.48,SSE,156,8.0,11.0,36,0.00,,,0.00,Wunderground v.1.15,2013-09-27 02:53:00,
2013-09-26 20:58:00,55.2,28.0,29.47,SE,146,11.0,11.0,35,0.00,,,0.00,Wunderground v.1.15,2013-09-27 02:58:00,
2013-09-26 21:03:00,54.6,28.8,29.48,SSE,165,9.0,10.0,37,0.00,,,0.00,Wunderground v.1.15,2013-09-27 03:03:00,
2013-09-26 21:08:00,53.4,29.0,29.48,South,171,9.0,10.0,39,0.00,,,0.00,Wunderground v.1.15,2013-09-27 03:08:00,
2013-09-26 21:13:00,52.3,29.3,29.49,South,169,11.0,11.0,41,0.00,,,0.00,Wunderground v.1.15,2013-09-27 03:13:00,
2013-09-26 21:18:00,52.2,29.2,29.49,SSE,168,9.0,11.0,41,0.00,,,0.00,Wunderground v.1.15,2013-09-27 03:18:00,
2013-09-26 21:23:00,52.2,28.6,29.49,South,176,11.0,12.0,40,0.00,,,0.00,Wunderground v.1.15,2013-09-27 03:23:00,
2013-09-26 21:28:00,54.8,28.3,29.49,South,173,12.0,22.0,36,0.00,,,0.00,Wunderground v.1.15,2013-09-27 03:28:00,
2013-09-26 21:33:00,54.9,28.4,29.49,SSW,213,7.0,12.0,36,0.00,,,0.00,Wunderground v.1.15,2013-09-27 03:33:00,
2013-09-26 21:38:00,54.6,28.2,29.50,West,261,5.0,13.0,36,0.00,,,0.00,Wunderground v.1.15,2013-09-27 03:38:00,
2013-09-26 21:43:00,53.4,29.0,29.50,WSW,247,7.0,13.0,39,0.00,,,0.00,Wunderground v.1.15,2013-09-27 03:43:00,
2013-09-26 21:48:00,52.4,28.8,29.50,West,265,7.0,13.0,40,0.00,,,0.00,Wunderground v.1.15,2013-09-27 03:48:00,
2013-09-26 21:53:00,53.0,28.7,29.51,SW,230,10.0,11.0,39,0.00,,,0.00,Wunderground v.1.15,2013-09-27 03:53:00,
2013-09-26 21:58:00,53.4,29.0,29.51,WSW,257,4.0,11.0,39,0.00,,,0.00,Wunderground v.1.15,2013-09-27 03:58:00,
2013-09-26 22:01:00,52.9,28.6,29.51,WSW,245,6.0,7.0,39,0.00,,,0.00,Wunderground v.1.15,2013-09-27 04:01:00,
2013-09-26 22:02:00,52.8,28.5,29.51,WSW,244,5.0,7.0,39,0.00,,,0.00,Wunderground v.1.15,2013-09-27 04:02:00,
2013-09-26 22:07:00,52.6,29.5,29.51,SW,230,10.0,10.0,41,0.00,,,0.00,Wunderground v.1.15,2013-09-27 04:07:00,
2013-09-26 22:12:00,53.5,30.4,29.51,South,191,9.0,12.0,41,0.00,,,0.00,Wunderground v.1.15,2013-09-27 04:12:00,
2013-09-26 22:17:00,53.3,30.2,29.51,SW,227,12.0,12.0,41,0.00,,,0.00,Wunderground v.1.15,2013-09-27 04:17:00,
2013-09-26 22:22:00,54.0,30.8,29.51,SSW,200,8.0,9.0,41,0.00,,,0.00,Wunderground v.1.15,2013-09-27 04:22:00,
2013-09-26 22:27:00,53.6,30.4,29.51,SSW,210,8.0,9.0,41,0.00,,,0.00,Wunderground v.1.15,2013-09-27 04:27:00,
2013-09-26 22:33:00,53.6,31.0,29.51,SSW,192,10.0,11.0,42,0.00,,,0.00,Wunderground v.1.15,2013-09-27 04:33:00,
2013-09-26 22:38:00,53.1,31.7,29.51,South,188,12.0,14.0,44,0.00,,,0.00,Wunderground v.1.15,2013-09-27 04:38:00,
2013-09-26 22:43:00,53.5,32.1,29.51,SW,221,12.0,13.0,44,0.00,,,0.00,Wunderground v.1.15,2013-09-27 04:43:00,
2013-09-26 22:48:00,54.4,32.3,29.51,SSW,205,11.0,16.0,43,0.00,,,0.00,Wunderground v.1.15,2013-09-27 04:48:00,
2013-09-26 22:53:00,54.9,32.2,29.51,SSW,202,14.0,16.0,42,0.00,,,0.00,Wunderground v.1.15,2013-09-27 04:53:00,
2013-09-26 22:58:00,55.3,32.6,29.51,South,178,13.0,18.0,42,0.00,,,0.00,Wunderground v.1.15,2013-09-27 04:58:00,
2013-09-26 23:03:00,55.0,32.3,29.51,SSW,207,16.0,18.0,42,0.00,,,0.00,Wunderground v.1.15,2013-09-27 05:03:00,
2013-09-26 23:08:00,54.9,32.8,29.51,South,178,13.0,18.0,43,0.00,,,0.00,Wunderground v.1.15,2013-09-27 05:08:00,
2013-09-26 23:13:00,55.0,32.9,29.51,South,191,12.0,17.0,43,0.00,,,0.00,Wunderground v.1.15,2013-09-27 05:13:00,
2013-09-26 23:18:00,54.6,32.5,29.51,South,190,14.0,17.0,43,0.00,,,0.00,Wunderground v.1.15,2013-09-27 05:18:00,
2013-09-26 23:23:00,54.8,32.7,29.51,South,191,12.0,18.0,43,0.00,,,0.00,Wunderground v.1.15,2013-09-27 05:23:00,
2013-09-26 23:28:00,54.7,32.6,29.51,SSW,204,13.0,18.0,43,0.00,,,0.00,Wunderground v.1.15,2013-09-27 05:28:00,
2013-09-26 23:33:00,53.9,33.0,29.51,SSW,205,11.0,13.0,45,0.00,,,0.00,Wunderground v.1.15,2013-09-27 05:33:00,
2013-09-26 23:38:00,55.0,32.9,29.52,SW,214,14.0,23.0,43,0.00,,,0.00,Wunderground v.1.15,2013-09-27 05:38:00,
2013-09-26 23:43:00,55.9,32.5,29.52,SSW,205,19.0,24.0,41,0.00,,,0.00,Wunderground v.1.15,2013-09-27 05:43:00,
2013-09-26 23:48:00,56.0,32.6,29.52,SSW,203,17.0,24.0,41,0.00,,,0.00,Wunderground v.1.15,2013-09-27 05:48:00,
2013-09-26 23:53:00,56.0,32.6,29.52,SSW,196,14.0,18.0,41,0.00,,,0.00,Wunderground v.1.15,2013-09-27 05:53:00,
2013-09-26 23:58:00,55.4,32.7,29.52,SSW,205,15.0,18.0,42,0.00,,,0.00,Wunderground v.1.15,2013-09-27 05:58:00,